Waupaca, WI

2:05 PM CDT on July 26, 2017 (GMT -0500)
Waupaca Municipal

Weather History for KPCZ - November, 2010

Change the Weather History Date:

Tuesday, November 2, 2010

  Actual Average Record
Temperature  
Mean Temperature 40 °F -  
Max Temperature 54 °F 50 °F 72 °F (1990)
Min Temperature 26 °F 34 °F 5 °F (1951)
Degree Days  
Heating Degree Days 25    
Moisture  
Dew Point 30 °F    
Average Humidity 74    
Maximum Humidity 94    
Minimum Humidity 39    
Precipitation  
Precipitation 0.00 in - - ()
Sea Level Pressure  
Sea Level Pressure 30.41 in    
Wind  
Wind Speed 1 mph (South)    
Max Wind Speed 8 mph    
Max Gust Speed -    
Visibility 8 miles    
Events Fog    
Averages and records for this station are not official NWS values.
T = Trace of Precipitation, MM = Missing Value Source: NWS Daily Summary

Daily Weather History Graph

Daily Weather History Graph

Search for Another Location

Airport or City:

Trip Planner

Search our weather history database for the weather conditions in past years. The results will help you decide how hot, cold, wet, or windy it might be!

Date:

Astronomy

Nov. 02, 2010 Rise Set
Actual Time 7:34 AM CDT 5:44 PM CDT
Civil Twilight 7:04 AM CDT 6:14 PM CDT
Nautical Twilight 6:29 AM CDT 6:48 PM CDT
Astronomical Twilight 5:56 AM CDT 7:22 PM CDT
Moon 3:13 AM CDT (11/2) 3:29 PM CDT (11/2)
Length of Visible Light 11h 10m
Length of Day
10h 09m
Waning Crescent, 16% of the Moon is Illuminated
Nov 2
Waning Crescent
Nov 5
New
Nov 13
First Quarter
Nov 21
Full
Nov 28
Last Quarter

Hourly Weather History & Observations

Time (CDT) Temp. Windchill Dew Point Humidity Pressure Visibility Wind Dir Wind Speed Gust Speed Precip Events Conditions
12:16 AM 29.8 °F - 27.1 °F 90% 30.46 in 10.0 mi Calm Calm - N/A   Clear
12:36 AM 29.5 °F - 27.3 °F 92% 30.46 in 10.0 mi Calm Calm - N/A   Clear
12:56 AM 30.4 °F - 28.2 °F 92% 30.46 in 10.0 mi Calm Calm - N/A   Clear
1:16 AM 28.9 °F - 26.6 °F 91% 30.46 in 10.0 mi Calm Calm - N/A   Clear
1:36 AM 29.7 °F - 27.7 °F 92% 30.46 in 7.0 mi Calm Calm - N/A   Clear
1:56 AM 29.7 °F - 27.7 °F 92% 30.46 in 7.0 mi Calm Calm - N/A   Clear
2:16 AM 29.7 °F - 27.5 °F 92% 30.46 in 7.0 mi Calm Calm - N/A   Clear
2:36 AM 28.8 °F - 26.8 °F 92% 30.46 in 10.0 mi Calm Calm - N/A   Clear
2:56 AM 28.2 °F - 26.2 °F 92% 30.46 in 7.0 mi Calm Calm - N/A   Clear
3:16 AM 28.2 °F - 26.2 °F 92% 30.46 in 5.0 mi Calm Calm - N/A   Clear
3:36 AM 28.4 °F - 26.6 °F 93% 30.46 in 10.0 mi Calm Calm - N/A   Clear
3:56 AM 28.2 °F - 26.2 °F 92% 30.46 in 7.0 mi Calm Calm - N/A   Clear
4:16 AM 27.5 °F - 25.5 °F 92% 30.47 in 10.0 mi Calm Calm - N/A   Clear
4:36 AM 27.9 °F - 26.1 °F 93% 30.47 in 10.0 mi Calm Calm - N/A   Clear
4:56 AM 27.5 °F - 25.7 °F 93% 30.47 in 10.0 mi Calm Calm - N/A   Clear
5:16 AM 27.9 °F - 25.7 °F 92% 30.47 in 10.0 mi Calm Calm - N/A   Clear
5:36 AM 27.1 °F - 25.0 °F 92% 30.47 in 10.0 mi Calm Calm - N/A   Clear
5:56 AM 27.1 °F - 25.2 °F 92% 30.47 in 10.0 mi Calm Calm - N/A   Clear
6:15 AM 27.7 °F - 25.7 °F 92% 30.47 in 10.0 mi Calm Calm - N/A   Clear
6:35 AM 27.7 °F - 25.7 °F 92% 30.47 in 7.0 mi Calm Calm - N/A   Clear
6:55 AM 27.0 °F - 25.0 °F 92% 30.47 in 10.0 mi Calm Calm - N/A   Clear
7:15 AM 26.4 °F - 24.3 °F 92% 30.46 in 5.0 mi Calm Calm - N/A   Clear
7:36 AM 26.6 °F - 24.4 °F 92% 30.47 in 2.0 mi Calm Calm - N/A   Overcast
7:56 AM 26.6 °F - 24.6 °F 92% 30.47 in 0.2 mi Calm Calm - N/A Fog Light Freezing Fog
8:16 AM 27.0 °F - 25.0 °F 92% 30.47 in 0.2 mi Calm Calm - N/A Fog Light Freezing Fog
8:35 AM 28.2 °F - 26.2 °F 92% 30.47 in 0.2 mi Calm Calm - N/A Fog Light Freezing Fog
8:56 AM 30.0 °F - 28.2 °F 93% 30.47 in 0.2 mi Calm Calm - N/A Fog Light Freezing Fog
9:15 AM 31.8 °F - 30.2 °F 94% 30.47 in 0.2 mi Calm Calm - N/A Fog Fog
9:35 AM 34.5 °F - 32.7 °F 93% 30.46 in 2.5 mi Calm Calm - N/A   Scattered Clouds
9:55 AM 36.9 °F - 35.2 °F 94% 30.46 in 5.0 mi Calm Calm - N/A   Clear
10:15 AM 39.4 °F - 37.8 °F 94% 30.45 in 10.0 mi Calm Calm - N/A   Clear
10:35 AM 41.4 °F - 39.6 °F 93% 30.44 in 10.0 mi Calm Calm - N/A   Clear
10:55 AM 44.6 °F - 37.2 °F 75% 30.44 in 10.0 mi Calm Calm - N/A   Clear
11:16 AM 46.6 °F - 35.2 °F 65% 30.43 in 10.0 mi Calm Calm - N/A   Clear
11:35 AM 49.1 °F - 35.8 °F 60% 30.43 in 10.0 mi Calm Calm - N/A   Clear
11:55 AM 50.9 °F - 34.7 °F 54% 30.43 in 10.0 mi SSE 5.8 mph - N/A   Clear
12:16 PM 51.4 °F - 33.3 °F 50% 30.42 in 10.0 mi SE 6.9 mph - N/A   Clear
12:35 PM 52.2 °F - 32.9 °F 48% 30.42 in 10.0 mi South 3.5 mph - N/A   Clear
12:56 PM 52.5 °F - 33.1 °F 48% 30.41 in 10.0 mi South 4.6 mph - N/A   Clear
1:15 PM 53.4 °F - 33.4 °F 47% 30.40 in 10.0 mi SSE 5.8 mph - N/A   Clear
1:56 PM 54.5 °F - 33.4 °F 45% 30.37 in 10.0 mi SSE 5.8 mph - N/A   Clear
2:15 PM 54.5 °F - 32.7 °F 44% 30.36 in 10.0 mi SSW 8.1 mph - N/A   Clear
2:36 PM 54.9 °F - 32.2 °F 42% 30.34 in 10.0 mi South 3.5 mph - N/A   Clear
2:56 PM 54.5 °F - 30.9 °F 41% 30.34 in 10.0 mi SW 3.5 mph - N/A   Clear
3:16 PM 54.5 °F - 29.8 °F 39% 30.33 in 10.0 mi South 4.6 mph - N/A   Clear
3:35 PM 54.5 °F - 30.0 °F 39% 30.32 in 10.0 mi SW 6.9 mph - N/A   Clear
3:56 PM 54.3 °F - 30.4 °F 40% 30.31 in 10.0 mi South 5.8 mph - N/A   Clear
4:15 PM 53.6 °F - 29.7 °F 40% 30.30 in 10.0 mi SSW 6.9 mph - N/A   Clear
4:35 PM 53.6 °F - 30.4 °F 41% 30.29 in 10.0 mi South 5.8 mph - N/A   Clear
4:56 PM 52.2 °F - 31.1 °F 45% 30.29 in 10.0 mi SSW 4.6 mph - N/A   Clear
5:16 PM 50.5 °F - 31.1 °F 47% 30.28 in 10.0 mi SSW 4.6 mph - N/A   Clear
5:36 PM 47.7 °F - 31.1 °F 53% 30.28 in 10.0 mi SSW 3.5 mph - N/A   Clear
5:56 PM 46.0 °F - 31.1 °F 56% 30.27 in 10.0 mi Calm Calm - N/A   Clear
6:16 PM 44.4 °F - 31.5 °F 60% 30.26 in 10.0 mi Calm Calm - N/A   Clear
6:35 PM 41.9 °F - 31.6 °F 67% 30.26 in 10.0 mi Calm Calm - N/A   Clear
6:56 PM 41.2 °F - 32.0 °F 70% 30.25 in 10.0 mi Calm Calm - N/A   Clear
7:16 PM 41.2 °F 39.2 °F 32.0 °F 70% 30.26 in 10.0 mi South 3.5 mph - N/A   Clear
7:36 PM 41.9 °F - 32.0 °F 68% 30.26 in 10.0 mi Calm Calm - N/A   Clear
7:56 PM 39.4 °F - 31.5 °F 73% 30.25 in 10.0 mi Calm Calm - N/A   Clear
8:16 PM 37.8 °F 35.3 °F 31.1 °F 77% 30.24 in 10.0 mi SSE 3.5 mph - N/A   Clear
8:36 PM 38.3 °F 35.9 °F 31.3 °F 76% 30.23 in 10.0 mi South 3.5 mph - N/A   Clear
8:56 PM 38.7 °F - 31.1 °F 74% 30.23 in 10.0 mi Calm Calm - N/A   Clear
9:16 PM 38.5 °F 35.0 °F 30.2 °F 72% 30.22 in 10.0 mi SSW 4.6 mph - N/A   Clear
9:36 PM 38.3 °F 33.9 °F 30.0 °F 72% 30.21 in 10.0 mi South 5.8 mph - N/A   Clear
9:56 PM 39.0 °F 35.7 °F 30.6 °F 72% 30.21 in 10.0 mi SSW 4.6 mph - N/A   Clear
10:16 PM 39.4 °F 36.1 °F 30.2 °F 70% 30.20 in 10.0 mi South 4.6 mph - N/A   Clear
10:36 PM 39.4 °F 34.5 °F 30.6 °F 71% 30.19 in 10.0 mi South 6.9 mph - N/A   Clear
10:56 PM 39.0 °F 34.0 °F 30.4 °F 71% 30.18 in 10.0 mi South 6.9 mph - N/A   Clear
11:16 PM 39.4 °F 37.2 °F 30.2 °F 70% 30.18 in 10.0 mi SW 3.5 mph - N/A   Clear
11:36 PM 39.4 °F 37.2 °F 30.0 °F 69% 30.18 in 10.0 mi SW 3.5 mph - N/A   Scattered Clouds
11:56 PM 39.4 °F 36.1 °F 30.7 °F 71% 30.17 in 10.0 mi SSW 4.6 mph - N/A   Mostly Cloudy